Station SGOF1 - Tyndall AFB Tower C (N4), FL Image indicating link to RSS feed of recent meteorological observations for station SGOF1


Conditions at SGOF1 as of
(11:00 pm CDT on 06/13/2024)
0400 GMT on 06/14/2024:
     

Click on the graph icon in the table below to see a time series plot of the last five days of that observation.

5-day plot - Atmospheric Pressure Atmospheric Pressure (PRES):29.90 in
5-day plot - Pressure Tendency Pressure Tendency (PTDY):+0.02 in ( Rising )
5-day plot - Air Temperature Air Temperature (ATMP): 82.6 °F
Previous observations
TIME
(CDT)
5-day plot - Wind Direction
WDIR
 
5-day plot - Wind Speed
WSPD
kts
5-day plot - Wind Gust
GST
kts
5-day plot - Wave Height
WVHT
ft
5-day plot - Dominant Wave Period
DPD
sec
5-day plot - Average Wave Period
APD
sec
5-day plot - Mean Wave Direction
MWD
 
5-day plot - Atmospheric Pressure
PRES
in
5-day plot - Pressure Tendency
PTDY
in
5-day plot - Air Temperature
ATMP
°F
5-day plot - Water Temperature
WTMP
°F
5-day plot - Dew Point
DEWP
°F
5-day plot - Salinity
SAL
psu
5-day plot - Visibility
VIS
nmi
5-day plot - Tide (above MLLW)
TIDE
ft
2024-06-13 10:00 pm-------29.89+0.00 82.4-----
2024-06-13 09:00 pm-------29.88+0.00 83.8-----
2024-06-13 08:00 pm-------29.88-0.02 82.8-----
2024-06-13 07:00 pm-------29.88-0.02 83.5-----
2024-06-13 06:00 pm-------29.88-0.02 81.5-----
2024-06-13 05:00 pm-------29.90+0.00 83.5-----
2024-06-13 04:00 pm-------29.90-0.01 83.3-----
2024-06-13 03:00 pm-------29.90-0.01 82.6-----
2024-06-13 02:00 pm-------29.90-0.02 81.9-----
2024-06-13 01:00 pm-------29.91+0.00 81.5-----
2024-06-13 12:00 pm-------29.91+0.00 81.5-----
2024-06-13 11:00 am-------29.91+0.00 81.7-----
2024-06-13 10:00 am-------29.92+0.02 81.9-----
2024-06-13 09:00 am-------29.92+0.04 81.9-----
2024-06-13 08:00 am-------29.91+0.05 81.3-----
2024-06-13 07:00 am-------29.90+0.05 81.0-----
2024-06-13 06:00 am-------29.88+0.03 81.5-----
2024-06-13 05:00 am-------29.86+0.01 81.9-----
2024-06-13 04:00 am-------29.85-0.02 81.9-----
2024-06-13 03:00 am-------29.85-0.03 81.7-----
2024-06-13 02:00 am-------29.85-0.04 82.0-----
2024-06-13 01:00 am-------29.87-0.02 82.4-----
2024-06-13 12:00 am-------29.88+0.00 82.8-----